User: anonymous   Login
Location: Unspecified
(0.0000°N, 0.0000°E)
Time: 00:00:08
(UTC+00:00)
Language:

GONETS M04 - Orbit

View from above orbital plane
View from above orbital plane
View from above satellite
View from above satellite

Ground track
Ground track

The orbit data is extracted from the following two-line orbital elements,

1 38736U 12041D   17172.69088842 +.00000010 +00000-0 +00000-0 0  9999
2 38736 082.4799 321.3463 0020971 014.6782 345.4902 12.42889846222305
Epoch (UTC): 21 June 2017 16:34:52
Eccentricity: 0.0020971
inclination: 82.4799°
perigee height: 1478 km
apogee height: 1511 km
right ascension of ascending node: 321.3463°
argument of perigee: 14.6782°
revolutions per day: 12.42889846
mean anomaly at epoch: 345.4902°
orbit number at epoch: 22230

The dashed part of the orbit path shows where the satellite is in the earth's shadow,  

DLR